Le nostre stazioni meteo in Italia

Pubblicità
Il mio iltempo24.it
Torino Venaria, Italia (16060): Temperatura & dewpoint: 20.08.2019 12:00:00 - 26.08.2019 12:00:00 (CEST)Torino Venaria, Italia (16060): velocità del vento: 20.08.2019 12:00:00 - 26.08.2019 12:00:00 (CEST)Torino Venaria, Italia (16060): direzione del vento: 20.08.2019 12:00:00 - 26.08.2019 12:00:00 (CEST)Torino Venaria, Italia (16060): reduced air pressure: 20.08.2019 12:00:00 - 26.08.2019 12:00:00 (CEST)
Data & Tempo tt [°C] td [°C] ff [km/h] ff [kn] dd ppp [hPa]
26.08.2019 12:00:00 - - - - - -
26.08.2019 11:00:00 24,5 19,3 4 2 N 1016,4
26.08.2019 10:00:00 22,6 20,5 2 1 SSE 1016,6
26.08.2019 09:00:00 19,3 19,2 2 1 ONO 1016,7
26.08.2019 08:00:00 16,6 16,5 2 1 ONO 1016,8
26.08.2019 07:00:00 16,2 16,1 4 2 NO 1016,5
26.08.2019 06:00:00 16,2 16,1 4 2 ONO 1016,3
26.08.2019 05:00:00 16,8 16,7 2 1 NNO 1016,3
26.08.2019 04:00:00 16,5 16,4 2 1 SSO 1016,4
26.08.2019 03:00:00 17,2 16,3 2 1 NNE 1016,5
26.08.2019 02:00:00 19,1 18,4 0 0 N 1016,8
26.08.2019 01:00:00 19,3 18,3 2 1 ONO 1016,8
26.08.2019 00:00:00 20,0 18,9 2 1 NNO 1016,7
25.08.2019 23:00:00 19,9 17,8 4 2 NO 1016,5
25.08.2019 22:00:00 21,5 17,0 5 3 NO 1015,7
25.08.2019 21:00:00 24,5 16,7 2 1 SO 1014,5
25.08.2019 20:00:00 25,6 16,9 8 4 SSO 1013,9
25.08.2019 19:00:00 28,5 17,6 8 4 E 1013,3
25.08.2019 18:00:00 28,6 17,4 5 3 SE 1013,3
25.08.2019 17:00:00 28,9 18,0 4 2 S 1013,2
25.08.2019 16:00:00 27,6 17,4 4 2 ESE 1013,9
25.08.2019 15:00:00 27,4 18,3 8 4 NNE 1014,6
25.08.2019 14:00:00 27,4 18,3 5 3 SSE 1015,0
25.08.2019 13:00:00 25,7 17,3 5 3 ENE 1015,7
25.08.2019 12:00:00 24,6 17,5 5 3 NE 1016,1
25.08.2019 11:00:00 23,5 18,1 4 2 SSE 1016,6
25.08.2019 10:00:00 21,8 19,1 5 3 ENE 1016,7
25.08.2019 09:00:00 18,6 18,5 2 1 ONO 1017,1
25.08.2019 08:00:00 16,6 16,5 4 2 NO 1016,9
25.08.2019 07:00:00 15,8 15,7 5 3 NO 1016,5
25.08.2019 06:00:00 16,3 16,2 4 2 NO 1016,2
25.08.2019 05:00:00 16,1 16,0 4 2 NO 1016,5
25.08.2019 04:00:00 16,7 16,5 0 0 N 1016,5
25.08.2019 03:00:00 17,9 17,4 5 3 ONO 1016,5
25.08.2019 02:00:00 19,0 18,5 0 0 N 1016,7
25.08.2019 01:00:00 19,1 18,1 0 0 N 1016,8
25.08.2019 00:00:00 18,9 18,0 4 2 ONO 1016,6
24.08.2019 23:00:00 19,7 18,1 4 2 ONO 1016,2
24.08.2019 22:00:00 20,3 17,2 4 2 NO 1015,9
24.08.2019 21:00:00 21,4 15,2 2 1 ONO 1015,3
24.08.2019 20:00:00 25,7 14,4 4 2 ENE 1014,5
24.08.2019 19:00:00 27,0 14,7 5 3 E 1014,6
24.08.2019 18:00:00 27,8 14,7 5 3 NNE 1014,9
24.08.2019 17:00:00 27,7 14,3 4 2 S 1015,1
24.08.2019 16:00:00 27,5 15,8 4 2 NO 1015,6
24.08.2019 15:00:00 27,9 16,8 4 2 NE 1016,2
24.08.2019 14:00:00 26,8 16,7 5 3 ENE 1016,9
24.08.2019 13:00:00 25,9 15,5 8 4 NNE 1017,5
24.08.2019 12:00:00 25,2 16,8 4 2 OSO 1017,9
24.08.2019 11:00:00 23,3 18,5 2 1 E 1018,5
24.08.2019 10:00:00 21,3 20,1 2 1 ENE 1018,9
24.08.2019 09:00:00 18,1 18,0 0 0 N 1019,0
24.08.2019 08:00:00 15,6 15,5 2 1 NO 1019,1
24.08.2019 07:00:00 14,5 14,4 4 2 ONO 1019,2
24.08.2019 06:00:00 14,9 14,8 2 1 NO 1019,0
24.08.2019 05:00:00 16,1 16,0 5 3 NO 1019,1
24.08.2019 04:00:00 15,2 15,1 4 2 O 1019,4
24.08.2019 03:00:00 15,9 15,5 2 1 NNE 1019,4
24.08.2019 02:00:00 17,6 17,2 0 0 N 1019,2
24.08.2019 01:00:00 18,3 18,2 0 0 N 1019,1
24.08.2019 00:00:00 18,1 17,6 0 0 N 1019,3
23.08.2019 23:00:00 19,1 17,9 4 2 ONO 1019,2
23.08.2019 22:00:00 19,6 17,3 5 3 NO 1019,3
23.08.2019 21:00:00 21,6 16,9 4 2 NO 1018,8
23.08.2019 20:00:00 23,4 16,4 5 3 NE 1018,4
23.08.2019 19:00:00 24,5 16,9 5 3 NNE 1018,0
23.08.2019 18:00:00 24,5 16,9 5 3 NE 1018,1
23.08.2019 17:00:00 25,2 17,8 8 4 E 1018,3
23.08.2019 16:00:00 24,4 17,3 8 4 NE 1018,9
23.08.2019 15:00:00 22,4 19,5 5 3 NE 1019,6
23.08.2019 14:00:00 22,4 18,5 13 7 E 1019,7
23.08.2019 13:00:00 23,1 17,0 8 4 ENE 1020,0
23.08.2019 12:00:00 22,6 17,4 5 3 NNE 1020,3
23.08.2019 11:00:00 22,0 16,9 8 4 NE 1020,3
23.08.2019 10:00:00 20,5 20,0 4 2 ENE 1019,8
23.08.2019 09:00:00 17,3 17,2 2 1 N 1020,2
23.08.2019 08:00:00 14,1 14,0 5 3 ONO 1019,6
23.08.2019 07:00:00 13,0 12,9 0 0 N 1019,3
23.08.2019 06:00:00 13,8 13,7 2 1 ENE 1019,2
23.08.2019 05:00:00 13,7 13,6 4 2 O 1019,3
23.08.2019 04:00:00 14,3 14,2 2 1 ONO 1019,5
23.08.2019 03:00:00 15,0 14,9 5 3 ONO 1019,4
23.08.2019 02:00:00 14,5 14,1 2 1 ONO 1019,8
23.08.2019 01:00:00 15,8 15,3 2 1 O 1019,6
23.08.2019 00:00:00 17,0 16,8 2 1 NO 1019,3
22.08.2019 23:00:00 17,7 16,7 4 2 ONO 1019,3
22.08.2019 22:00:00 19,2 16,9 4 2 ONO 1019,0
22.08.2019 21:00:00 20,8 17,2 4 2 SSO 1018,2
22.08.2019 20:00:00 22,7 18,6 0 0 N 1017,6
22.08.2019 19:00:00 23,6 16,1 2 1 S 1017,6
22.08.2019 18:00:00 23,8 16,5 0 0 N 1018,1
22.08.2019 17:00:00 23,7 18,3 9 5 SO 1018,4
22.08.2019 16:00:00 23,0 19,9 5 3 S 1018,9
22.08.2019 15:00:00 21,5 20,1 4 2 SO 1019,3
22.08.2019 14:00:00 20,5 20,0 8 4 S 1019,7
22.08.2019 13:00:00 19,9 19,8 5 3 O 1020,3
22.08.2019 12:00:00 18,6 18,5 5 3 SO 1021,5
22.08.2019 11:00:00 18,2 18,1 9 5 SSO 1021,3
22.08.2019 10:00:00 18,8 18,7 4 2 SSO 1021,1
22.08.2019 09:00:00 18,6 18,5 4 2 ONO 1020,2
22.08.2019 08:00:00 18,5 18,3 4 2 N 1019,8
22.08.2019 07:00:00 19,2 17,8 9 5 NE 1019,4
22.08.2019 06:00:00 20,6 17,9 11 6 NE 1018,7
22.08.2019 05:00:00 20,0 18,1 9 5 NNE 1018,4
22.08.2019 04:00:00 20,4 18,8 9 5 NNE 1018,1
22.08.2019 03:00:00 17,7 17,3 0 0 N 1017,7
22.08.2019 02:00:00 18,4 17,4 0 0 N 1017,5
22.08.2019 01:00:00 19,6 18,4 2 1 NNO 1017,5
22.08.2019 00:00:00 19,9 18,3 4 2 NO 1017,4
21.08.2019 23:00:00 20,4 18,5 2 1 O 1017,0
21.08.2019 22:00:00 21,7 18,6 4 2 NO 1016,6
21.08.2019 21:00:00 23,1 18,1 0 0 N 1015,4
21.08.2019 20:00:00 25,6 18,5 0 0 N 1015,1
21.08.2019 19:00:00 26,9 16,7 4 2 NNE 1015,0
21.08.2019 18:00:00 27,8 17,3 8 4 NE 1014,9
21.08.2019 17:00:00 28,5 16,4 5 3 ESE 1014,7
21.08.2019 16:00:00 28,8 16,3 4 2 ONO 1014,9
21.08.2019 15:00:00 27,8 15,7 5 3 E 1015,3
21.08.2019 14:00:00 27,3 16,8 5 3 ENE 1015,7
21.08.2019 13:00:00 26,7 17,1 4 2 SSO 1016,3
21.08.2019 12:00:00 25,2 18,6 8 4 SO 1016,6
21.08.2019 11:00:00 23,3 17,4 8 4 SO 1017,0
21.08.2019 10:00:00 20,8 19,9 4 2 SSO 1017,2
21.08.2019 09:00:00 18,4 18,3 0 0 N 1017,4
21.08.2019 08:00:00 17,2 17,1 2 1 ONO 1017,2
21.08.2019 07:00:00 16,4 16,3 2 1 ONO 1016,8
21.08.2019 06:00:00 16,0 15,9 4 2 ONO 1016,2
21.08.2019 05:00:00 15,7 15,6 2 1 O 1016,1
21.08.2019 04:00:00 16,3 16,2 4 2 O 1015,9
21.08.2019 03:00:00 17,5 17,4 0 0 N 1015,8
21.08.2019 02:00:00 18,6 18,5 2 1 NO 1015,6
21.08.2019 01:00:00 19,3 19,2 2 1 ENE 1015,6
21.08.2019 00:00:00 19,2 18,8 4 2 SO 1015,8
20.08.2019 23:00:00 19,8 18,4 5 3 O 1015,8
20.08.2019 22:00:00 20,9 18,8 4 2 NNE 1015,6
20.08.2019 21:00:00 21,5 18,4 5 3 NNE 1014,9
20.08.2019 20:00:00 22,5 19,2 4 2 NNE 1014,3
20.08.2019 19:00:00 22,8 18,9 8 4 N 1013,9
20.08.2019 18:00:00 24,6 16,8 4 2 NE 1014,2
20.08.2019 17:00:00 24,8 18,4 5 3 NNE 1014,0
20.08.2019 16:00:00 24,9 18,3 8 4 E 1014,2
20.08.2019 15:00:00 24,5 19,7 8 4 ENE 1014,8
20.08.2019 14:00:00 23,7 20,4 5 3 E 1015,2
20.08.2019 13:00:00 23,0 20,7 5 3 NNE 1015,4
20.08.2019 12:00:00 22,6 20,3 4 2 NNE 1015,7

tt = Temperatura
td = dewpoint
ff = velocità del vento
dd = direzione del vento
ppp = reduced air pressure

Stazioni seguenti

WeatherPro
AMSI
MeteoEarth